TimeCDT,TemperatureF,Dew PointF,Humidity,Sea Level PressureIn,VisibilityMPH,Wind Direction,Wind SpeedMPH,Gust SpeedMPH,PrecipitationIn,Events,Conditions,WindDirDegrees,DateUTC
12:14 AM,41.0,26.6,57,29.95,7.0,SSE,6.9,-,N/A,,Clear,150,2012-10-02 05:14:00
12:35 AM,39.2,26.6,61,29.94,7.0,South,5.8,-,N/A,,Clear,170,2012-10-02 05:35:00
12:55 AM,39.2,26.6,61,29.93,10.0,SSE,6.9,-,N/A,,Clear,160,2012-10-02 05:55:00
1:14 AM,39.2,26.6,61,29.93,10.0,SSE,5.8,-,N/A,,Clear,160,2012-10-02 06:14:00
1:35 AM,39.2,26.6,61,29.93,10.0,SSE,8.1,-,N/A,,Clear,150,2012-10-02 06:35:00
1:55 AM,39.2,26.6,61,29.92,10.0,SSE,8.1,-,N/A,,Clear,160,2012-10-02 06:55:00
2:14 AM,39.2,26.6,61,29.92,10.0,SE,8.1,-,N/A,,Clear,140,2012-10-02 07:14:00
2:35 AM,39.2,26.6,61,29.91,10.0,SSE,9.2,-,N/A,,Clear,160,2012-10-02 07:35:00
2:55 AM,39.2,26.6,61,29.91,10.0,South,8.1,-,N/A,,Clear,170,2012-10-02 07:55:00
3:14 AM,39.2,26.6,61,29.90,10.0,SSE,8.1,-,N/A,,Clear,160,2012-10-02 08:14:00
3:35 AM,39.2,28.4,65,29.89,10.0,South,9.2,-,N/A,,Clear,170,2012-10-02 08:35:00
3:54 AM,39.2,28.4,65,29.89,10.0,South,6.9,-,N/A,,Clear,170,2012-10-02 08:54:00
4:14 AM,39.2,26.6,61,29.89,10.0,SSE,8.1,-,N/A,,Clear,160,2012-10-02 09:14:00
4:35 AM,39.2,26.6,61,29.88,10.0,SSE,8.1,-,N/A,,Clear,160,2012-10-02 09:35:00
4:54 AM,39.2,28.4,65,29.88,10.0,South,6.9,-,N/A,,Clear,170,2012-10-02 09:54:00
5:35 AM,39.2,28.4,65,29.87,10.0,South,9.2,-,N/A,,Clear,170,2012-10-02 10:35:00
5:54 AM,42.8,28.4,57,29.87,10.0,South,10.4,-,N/A,,Clear,170,2012-10-02 10:54:00
6:14 AM,44.6,28.4,53,29.86,10.0,South,10.4,-,N/A,,Clear,180,2012-10-02 11:14:00
6:35 AM,44.6,28.4,53,29.85,10.0,South,11.5,-,N/A,,Clear,180,2012-10-02 11:35:00
6:54 AM,44.6,28.4,53,29.85,10.0,South,12.7,-,N/A,,Clear,180,2012-10-02 11:54:00
7:14 AM,44.6,28.4,53,29.85,10.0,South,13.8,-,N/A,,Clear,180,2012-10-02 12:14:00
7:35 AM,46.4,28.4,50,29.84,10.0,South,16.1,-,N/A,,Clear,180,2012-10-02 12:35:00
7:54 AM,46.4,28.4,50,29.84,10.0,South,13.8,-,N/A,,Clear,180,2012-10-02 12:54:00
8:15 AM,46.4,28.4,50,29.83,10.0,South,15.0,-,N/A,,Clear,180,2012-10-02 13:15:00
8:35 AM,48.2,28.4,46,29.83,10.0,South,16.1,21.9,N/A,,Clear,180,2012-10-02 13:35:00
8:54 AM,50.0,28.4,43,29.82,7.0,South,19.6,24.2,N/A,,Clear,190,2012-10-02 13:54:00
9:15 AM,53.6,28.4,38,29.81,10.0,South,21.9,26.5,N/A,,Clear,190,2012-10-02 14:15:00
9:35 AM,55.4,28.4,36,29.79,10.0,South,23.0,29.9,N/A,,Clear,190,2012-10-02 14:35:00
9:54 AM,57.2,28.4,33,29.79,10.0,South,21.9,34.5,N/A,,Clear,190,2012-10-02 14:54:00
10:15 AM,59.0,28.4,31,29.78,10.0,South,25.3,34.5,N/A,,Clear,190,2012-10-02 15:15:00
10:35 AM,60.8,30.2,31,29.77,10.0,SSW,26.5,35.7,N/A,,Clear,200,2012-10-02 15:35:00
10:54 AM,62.6,30.2,30,29.75,10.0,South,28.8,38.0,N/A,,Clear,190,2012-10-02 15:54:00
11:15 AM,64.4,28.4,26,29.73,7.0,SSW,27.6,41.4,N/A,,Clear,200,2012-10-02 16:15:00
11:35 AM,64.4,28.4,26,29.73,10.0,South,32.2,39.1,N/A,,Clear,190,2012-10-02 16:35:00
11:54 AM,66.2,28.4,24,29.73,7.0,SSW,28.8,41.4,N/A,,Clear,200,2012-10-02 16:54:00
12:15 PM,68.0,28.4,23,29.72,7.0,SSW,34.5,42.6,N/A,,Clear,210,2012-10-02 17:15:00
12:35 PM,69.8,28.4,21,29.71,10.0,SSW,31.1,43.7,N/A,,Clear,200,2012-10-02 17:35:00
12:54 PM,69.8,28.4,21,29.70,10.0,SSW,28.8,38.0,N/A,,Clear,200,2012-10-02 17:54:00
1:15 PM,71.6,28.4,20,29.69,10.0,SSW,33.4,41.4,N/A,,Clear,210,2012-10-02 18:15:00
1:35 PM,73.4,28.4,19,29.67,10.0,SSW,35.7,43.7,N/A,,Clear,210,2012-10-02 18:35:00
1:54 PM,73.4,28.4,19,29.69,10.0,SSW,33.4,43.7,N/A,,Clear,210,2012-10-02 18:54:00
2:15 PM,73.4,28.4,19,29.68,10.0,SSW,31.1,39.1,N/A,,Clear,200,2012-10-02 19:15:00
2:34 PM,75.2,30.2,19,29.67,10.0,SSW,32.2,41.4,N/A,,Clear,210,2012-10-02 19:34:00
2:54 PM,75.2,30.2,19,29.66,10.0,SSW,29.9,38.0,N/A,,Clear,210,2012-10-02 19:54:00
3:15 PM,75.2,30.2,19,29.66,10.0,SW,28.8,38.0,N/A,,Clear,220,2012-10-02 20:15:00
3:34 PM,75.2,30.2,19,29.66,10.0,SW,28.8,35.7,N/A,,Clear,220,2012-10-02 20:34:00
3:54 PM,75.2,30.2,19,29.66,10.0,SW,24.2,31.1,N/A,,Clear,230,2012-10-02 20:54:00
4:15 PM,75.2,30.2,19,29.65,10.0,SSW,25.3,32.2,N/A,,Clear,210,2012-10-02 21:15:00
4:34 PM,77.0,30.2,18,29.65,10.0,SW,25.3,32.2,N/A,,Clear,220,2012-10-02 21:34:00
5:15 PM,77.0,32.0,19,29.65,10.0,SW,20.7,27.6,N/A,,Clear,220,2012-10-02 22:15:00
5:34 PM,77.0,32.0,19,29.65,10.0,SW,21.9,27.6,N/A,,Clear,220,2012-10-02 22:34:00
6:15 PM,75.2,32.0,21,29.66,10.0,SW,16.1,20.7,N/A,,Clear,220,2012-10-02 23:15:00
6:34 PM,73.4,33.8,23,29.67,10.0,West,8.1,-,N/A,,Clear,260,2012-10-02 23:34:00
6:55 PM,71.6,37.4,29,29.69,10.0,WNW,9.2,-,N/A,,Clear,300,2012-10-02 23:55:00
7:14 PM,69.8,39.2,33,29.70,10.0,NW,8.1,-,N/A,,Clear,320,2012-10-03 00:14:00
7:34 PM,68.0,39.2,35,29.70,10.0,NW,13.8,-,N/A,,Clear,320,2012-10-03 00:34:00
7:55 PM,64.4,39.2,40,29.71,10.0,NW,10.4,-,N/A,,Clear,310,2012-10-03 00:55:00
8:14 PM,60.8,39.2,45,29.72,10.0,NW,8.1,-,N/A,,Clear,310,2012-10-03 01:14:00
8:34 PM,59.0,39.2,48,29.72,10.0,NW,10.4,-,N/A,,Clear,320,2012-10-03 01:34:00
8:55 PM,57.2,37.4,48,29.73,7.0,WNW,8.1,-,N/A,,Clear,300,2012-10-03 01:55:00
9:14 PM,55.4,37.4,51,29.73,10.0,NW,5.8,-,N/A,,Clear,310,2012-10-03 02:14:00
9:34 PM,55.4,37.4,51,29.74,10.0,WNW,5.8,-,N/A,,Clear,300,2012-10-03 02:34:00
9:55 PM,57.2,37.4,48,29.75,10.0,WNW,4.6,-,N/A,,Clear,300,2012-10-03 02:55:00
10:14 PM,55.4,37.4,51,29.76,10.0,WNW,4.6,-,N/A,,Clear,290,2012-10-03 03:14:00
10:34 PM,55.4,37.4,51,29.77,10.0,WNW,4.6,-,N/A,,Clear,290,2012-10-03 03:34:00
10:55 PM,53.6,37.4,54,29.77,10.0,WNW,4.6,-,N/A,,Clear,290,2012-10-03 03:55:00
11:14 PM,51.8,37.4,58,29.77,10.0,West,4.6,-,N/A,,Clear,280,2012-10-03 04:14:00
11:35 PM,50.0,35.6,58,29.78,10.0,Calm,Calm,-,N/A,,Clear,0,2012-10-03 04:35:00
11:55 PM,51.8,37.4,58,29.79,4.0,Calm,Calm,-,N/A,,Haze,0,2012-10-03 04:55:00